| time (UTC) | temp F | wind direction | speed knots | gust knots | rain 1hr in | rain 24hr in | rain mn in | humidity % | barometer mb |
| 20260504181556 | 59 | 157 | 1.7 | 4.3 | 0.00 | 0.10 | 0.10 | 69 | 1003.0 |
| 20260504180051 | 58 | 248 | 0.0 | 4.3 | 0.00 | 0.10 | 0.10 | 70 | 1003.3 |
| 20260504174551 | 58 | 227 | 2.6 | 7.8 | 0.00 | 0.10 | 0.10 | 69 | 1003.5 |
| 20260504173042 | 58 | 252 | 5.2 | 8.7 | 0.00 | 0.10 | 0.10 | 71 | 1003.6 |
| 20260504171539 | 57 | 225 | 4.3 | 7.8 | 0.00 | 0.10 | 0.10 | 72 | 1003.6 |
| 20260504120107 | 47 | 252 | 6.1 | 13.0 | 0.04 | 0.09 | 0.08 | 92 | 1003.3 |
| 20260504081520 | 46 | 211 | 0.9 | 4.3 | 0.00 | 0.01 | 0.00 | 82 | 1004.2 |
| 20260504044551 | 47 | 215 | 1.7 | 7.0 | 0.00 | 0.01 | 0.00 | 60 | 1005.0 |
| 20260504043108 | 47 | 232 | 4.3 | 7.8 | 0.00 | 0.01 | 0.00 | 58 | 1005.1 |
| 20260504041542 | 47 | 231 | 2.6 | 6.1 | 0.00 | 0.01 | 0.00 | 57 | 1005.3 |
| 20260504040042 | 47 | 246 | 1.7 | 7.0 | 0.00 | 0.01 | 0.00 | 57 | 1005.2 |
| 20260504034546 | 46 | 238 | 3.5 | 6.1 | 0.00 | 0.01 | 0.01 | 56 | 1005.2 |
| 20260504033036 | 46 | 207 | 1.7 | 6.1 | 0.00 | 0.01 | 0.01 | 56 | 1005.2 |
| 20260504031547 | 46 | 200 | 0.9 | 4.3 | 0.00 | 0.01 | 0.01 | 56 | 1005.3 |
| 20260504030042 | 45 | 360 | 2.6 | 7.0 | 0.00 | 0.01 | 0.01 | 57 | 1005.4 |
| 20260504024535 | 45 | 194 | 0.9 | 3.5 | 0.00 | 0.01 | 0.01 | 58 | 1005.5 |
| 20260504023032 | 45 | 204 | 0.0 | 0.0 | 0.00 | 0.01 | 0.01 | 59 | 1005.6 |
| 20260504021540 | 46 | 204 | 0.9 | 2.6 | 0.00 | 0.01 | 0.01 | 57 | 1005.8 |
| 20260504020037 | 47 | 205 | 0.9 | 1.7 | 0.00 | 0.01 | 0.01 | 53 | 1005.8 |
| 20260504014530 | 47 | 205 | 0.9 | 1.7 | 0.00 | 0.01 | 0.01 | 52 | 1005.9 |
| 20260504013035 | 48 | 202 | 0.0 | 3.5 | 0.00 | 0.01 | 0.01 | 51 | 1006.0 |
| 20260504011530 | 48 | 212 | 0.9 | 4.3 | 0.00 | 0.01 | 0.01 | 51 | 1006.0 |
| 20260504010030 | 47 | 198 | 0.9 | 2.6 | 0.00 | 0.01 | 0.01 | 54 | 1006.1 |
| 20260504004540 | 48 | 211 | 0.0 | 0.0 | 0.00 | 0.01 | 0.01 | 53 | 1005.9 |
| 20260504003029 | 49 | 211 | 0.0 | 0.0 | 0.00 | 0.01 | 0.01 | 49 | 1005.7 |
| 20260504001534 | 50 | 213 | 0.0 | 0.9 | 0.00 | 0.01 | 0.01 | 48 | 1005.6 |
| 20260504000028 | 51 | 223 | 2.6 | 4.3 | 0.00 | 0.01 | 0.01 | 47 | 1005.6 |
| 20260503234529 | 51 | 227 | 2.6 | 6.1 | 0.00 | 0.01 | 0.01 | 46 | 1005.6 |
| 20260503233026 | 52 | 227 | 2.6 | 7.8 | 0.00 | 0.01 | 0.01 | 45 | 1005.7 |
| 20260503231526 | 52 | 241 | 3.5 | 8.7 | 0.00 | 0.01 | 0.01 | 43 | 1005.6 |
| 20260503230036 | 53 | 254 | 3.5 | 12.2 | 0.00 | 0.01 | 0.01 | 43 | 1005.5 |
| 20260503224525 | 53 | 253 | 5.2 | 12.2 | 0.00 | 0.01 | 0.01 | 42 | 1005.5 |
| 20260503223025 | 53 | 236 | 1.7 | 8.7 | 0.00 | 0.01 | 0.01 | 44 | 1005.5 |
| 20260503221526 | 54 | 265 | 5.2 | 10.4 | 0.00 | 0.01 | 0.01 | 42 | 1005.6 |
| 20260503220032 | 54 | 201 | 7.0 | 14.8 | 0.00 | 0.01 | 0.01 | 43 | 1005.6 |
| 20260503214532 | 54 | 253 | 5.2 | 14.8 | 0.00 | 0.01 | 0.01 | 44 | 1005.6 |
| 20260503213030 | 53 | 360 | 6.1 | 10.4 | 0.00 | 0.01 | 0.01 | 43 | 1005.5 |
| 20260503211521 | 53 | 265 | 10.4 | 15.6 | 0.00 | 0.01 | 0.01 | 42 | 1005.6 |
| 20260503210021 | 54 | 302 | 5.2 | 13.9 | 0.00 | 0.01 | 0.01 | 43 | 1005.5 |
| 20260503204525 | 53 | 360 | 7.8 | 18.2 | 0.00 | 0.01 | 0.01 | 42 | 1005.6 |
| 20260503203016 | 53 | 360 | 7.0 | 13.9 | 0.00 | 0.01 | 0.01 | 45 | 1005.7 |
| 20260503201515 | 52 | 360 | 6.1 | 16.5 | 0.00 | 0.01 | 0.01 | 42 | 1005.7 |
| 20260503200012 | 52 | 360 | 7.8 | 17.4 | 0.00 | 0.01 | 0.01 | 47 | 1006.0 |
| 20260503194509 | 52 | 248 | 8.7 | 13.9 | 0.00 | 0.01 | 0.01 | 46 | 1006.1 |
| 20260503193008 | 52 | 234 | 6.1 | 13.0 | 0.00 | 0.01 | 0.01 | 47 | 1006.4 |
| 20260503191504 | 51 | 360 | 7.0 | 12.2 | 0.00 | 0.01 | 0.01 | 48 | 1006.5 |
| 20260503190006 | 51 | 360 | 5.2 | 11.3 | 0.00 | 0.01 | 0.01 | 49 | 1006.7 |
| 20260503184600 | 51 | 275 | 5.2 | 8.7 | 0.00 | 0.08 | 0.01 | 52 | 1006.8 |
| 20260503183104 | 49 | 360 | 5.2 | 13.0 | 0.00 | 0.08 | 0.01 | 52 | 1007.1 |